STARLINK-2386, 47805

Orbit data source: Space-Track

STARLINK-2386, 47805 is a payload satellite owned by SpaceX/Seattle (US) in LEO that was launched on Thu, 11 Mar 2021 UTC via an FALCON 9 launch vehicle from the Air Force Eastern Test Range (AFETR). Payload-class satellites include a variety of spacecraft equipped with specific instruments for various scientific and technological missions. These include communications satellites like Starlink; space stations such as the ISS; scientific satellites like the Hubble; Earth observation satellites from companies like Planet Labs, Umbra, and HawkEye 360; GPS; miniature CubeSats for education and research; and military/defense satellites.

Loading next visibility...
Identifier
47805, 2021-018U
Orbit
LEO
Country
Flag of USUS
Related business
Manufacturer
SpaceX/Seattle
Mission
Operational Commercial Communications
Bus & Motor
STARLINK, Unknown motor
Mass
260 kg wet, ~248 kg dry
Launch date (UTC)
2021-03-11 (5 years ago)
Launch vehicle
FALCON 9
Launch site
Air Force Eastern Test Range (AFETR)
Object type
Payload
Rocket body
Debris
Shape & HBR
Box + 1 Pan, 10.1 m
Radar Cross Section
13.562 m², Large (>1 m²)

Expand to show TLE details & history
Last TLE update: 2 days ago

TLE from 2 days ago
0 STARLINK-2386
1 47805U 21018U   26171.24904274  .00028536  00000-0  11948-2 0  9994
2 47805  53.0906 125.4538 0003210  70.0661 290.0682 15.23351759292420
Epoch: 2026-06-20T05:58Z
TLE epoch observation values (Epoch: 2026-06-20T05:58:37.292Z)
Latitude
0.00001°
Longitude
127.33204°
Altitude
495.872 km
Speed
7.618 km/s
True Right ascension
08h 21m 48s
True Declination
0° 00' 00"
Sunlit
Object was in daylight at epoch
Visualization orbit readout
Latitude
Unknown
Longitude
Unknown
Altitude
Unknown
Speed
Unknown
Apparent Right ascension
Unknown
Apparent Declination
Unknown
Sunlit
N/A
Visualization observer readout
Local Sidereal Time
00:51:13
Azimuth
Unknown
Elevation
Unknown
Doppler factor
Unknown
Orbital elements
Apogee altitude
498.213 km
Perigee altitude
493.8 km
Semi-major axis
6,874.143 km
Eccentricity
0.00032
Inclination
53.0906°
RAAN
125.4538°
Arg. of periapsis
70.0661°
True anomaly
290.03364°
Mean anomaly
290.0682°
Eccentric anomaly
290.05092°
Mean motion
3.80816 °/min
Orbital period
94.53 mins
BSTAR
0.0011948
Loading maneuver chart data...
Computing Atmospheric mass density...

Documentation

Showing up to 5 results
|